Location: Brno
(49.2000°N, 16.6330°E)
Time: 00:16:31
(UTC+01:00)

Cosmos 332 Rocket - Visible Passes

Search period start: 31 January 2015 00:00
Search period end: 10 February 2015 00:00
Orbit: 685 x 705 km, 74.0° (Epoch: 29 January)

Date Brightness Start Highest point End Pass type
(mag) Time Alt. Az. Time Alt. Az. Time Alt. Az.
05 Feb 6.2 19:54:53 10° N 19:55:22 12° N 19:55:22 12° N visible
06 Feb 6.0 18:57:06 10° NNE 18:57:46 11° NNE 18:57:46 11° NNE visible
06 Feb 6.5 20:36:03 10° NNW 20:36:31 13° NNW 20:36:31 13° NNW visible
07 Feb 5.8 19:37:30 10° N 19:38:58 17° N 19:38:58 17° N visible
08 Feb 5.7 18:39:35 10° N 18:41:28 14° NNE 18:41:28 14° NNE visible
08 Feb 5.9 20:18:44 10° NNW 20:20:13 20° NNW 20:20:13 20° NNW visible
09 Feb 5.2 19:20:08 10° N 19:22:45 25° NNE 19:22:45 25° NNE visible
09 Feb 6.5 21:00:33 10° NW 21:01:32 15° NW 21:01:32 15° NW visible
